Location: *
(12.5665°N, 8.3471°E)
Time: 15:54:56
(UTC+00:00)

Meteor 1-31 Rocket - Pass Details

Date: 23 September 2019
Orbit: 520 x 548 km, 97.6° (Epoch: 22 October)

Event Time Altitude Azimuth Distance (km) Brightness Sun altitude
Rises 04:32:49 0° 344° (NNW) 2,670 6.2 -11.3°
Reaches altitude 10° 04:35:39 10° 320° (NW) 1,774 5.1 -10.6°
Maximum altitude 04:37:52 15° 285° (WNW) 1,479 4.4 -10.1°
Enters shadow 04:39:11 13° 261° (W) 1,586 4.5 -9.7°
